Simultaneous Nadir Overpasses (SNOs) Predictions

Prediction of SNOs between GOES-17 and METOP-A Satellite Orbit:

Table of predicted SNOs for the next 14.0 days since TLE Epoch: 7/3/2020
Index Date Time (GOES-17) GOES-17 Lat,Lon METOP-A Lat,Lon Distance(km) Time Diff (sec)
1 07/04/2020 05:54:15 -0.02,-137.18 -0.47,-139.08 216.72 80
2 07/05/2020 05:36:16 -0.02,-137.18 0.66,-134.10 350.16 80
3 07/06/2020 17:52:27 0.02,-137.18 0.36,-138.70 173.14 80
4 07/07/2020 17:34:28 0.02,-137.17 -0.76,-133.72 393.48 80
5 07/09/2020 05:50:47 -0.00,-137.15 -0.30,-138.34 136.56 80
6 07/10/2020 05:32:48 -0.00,-137.14 0.83,-133.36 429.90 80
7 07/11/2020 17:48:59 -0.00,-137.13 0.19,-137.96 93.95 80
8 07/12/2020 17:30:59 0.00,-137.12 -0.94,-132.98 472.42 80
9 07/14/2020 05:47:19 -0.00,-137.09 -0.12,-137.60 57.97 80
10 07/16/2020 17:45:29 0.02,-137.06 0.06,-137.20 16.88 80
